Madras, India

7:33 AM IST on February 26, 2017 (GMT +0530)
Chennai International

Weather History for VOMM - September, 2012

Change the Weather History Date:

Thursday, September 6, 2012

  Actual Average Record
Temperature  
Mean Temperature 88 °F -  
Max Temperature 96 °F 89 °F 98 °F (1999)
Min Temperature 79 °F 76 °F 68 °F (2003)
Cooling Degree Days 22    
Growing Degree Days 38 (Base 50)    
Moisture  
Dew Point 76 °F    
Average Humidity 71    
Maximum Humidity 84    
Minimum Humidity 49    
Precipitation  
Precipitation 0.00 in 0.27 in - ()
Sea Level Pressure  
Sea Level Pressure 29.72 in    
Wind  
Wind Speed 7 mph ()    
Max Wind Speed 10 mph    
Max Gust Speed -    
Visibility 4.1 miles    
Events      
Averages and records for this station are not official NWS values.
T = Trace of Precipitation, MM = Missing Value Source: Averaged Metar Reports

Daily Weather History Graph

Daily Weather History Graph

Search for Another Location

Airport or City:

Trip Planner

Search our weather history database for the weather conditions in past years. The results will help you decide how hot, cold, wet, or windy it might be!

Date:

Astronomy

Sep. 06, 2012 Rise Set
Actual Time 5:58 AM IST 6:16 PM IST
Civil Twilight 5:36 AM IST 6:38 PM IST
Nautical Twilight 5:12 AM IST 7:02 PM IST
Astronomical Twilight 4:46 AM IST 7:27 PM IST
Moon 10:14 PM IST (9/6) 10:26 AM IST (9/6)
Length of Visible Light 13h 01m
Length of Day
12h 18m
Waning Gibbous, 71% of the Moon is Illuminated
Sep 6
Waning Gibbous
Sep 8
Last Quarter
Sep 16
New
Sep 23
First Quarter
Sep 30
Full

Hourly Weather History & Observations

Time (IST) Temp. Heat Index Dew Point Humidity Pressure Visibility Wind Dir Wind Speed Gust Speed Precip Events Conditions
12:10 AM 82.4 °F 89.5 °F 75.2 °F 79% 29.71 in 3.7 mi SSW 9.2 mph - N/A   Scattered Clouds
12:40 AM 82.4 °F 90.9 °F 77.0 °F 84% 29.71 in 3.7 mi South 6.9 mph - N/A   Scattered Clouds
1:10 AM 82.4 °F 90.9 °F 77.0 °F 84% 29.71 in 3.7 mi SSW 9.2 mph - N/A   Scattered Clouds
1:40 AM 82.4 °F 90.9 °F 77.0 °F 84% 29.71 in 3.7 mi SSW 9.2 mph - N/A   Mostly Cloudy
2:10 AM 82.4 °F 90.9 °F 77.0 °F 84% 29.71 in 3.7 mi SW 6.9 mph - N/A   Scattered Clouds
2:30 AM 83 °F - 77 °F 78% 29.73 in 2 mi South 2.3 mph - -   Scattered Clouds
2:40 AM 84.2 °F 92.3 °F 75.2 °F 74% 29.71 in 3.7 mi SSW 10.4 mph - N/A   Scattered Clouds
3:10 AM 84.2 °F 92.3 °F 75.2 °F 74% 29.71 in 3.7 mi SSW 8.1 mph - N/A   Scattered Clouds
3:40 AM 82.4 °F 89.5 °F 75.2 °F 79% 29.71 in 3.7 mi SSW 10.4 mph - N/A   Scattered Clouds
4:10 AM 82.4 °F 89.5 °F 75.2 °F 79% 29.71 in 3.7 mi SSW 10.4 mph - N/A   Scattered Clouds
4:40 AM 82.4 °F 89.5 °F 75.2 °F 79% 29.71 in 3.7 mi SSW 5.8 mph - N/A   Scattered Clouds
5:10 AM 82.4 °F 89.5 °F 75.2 °F 79% 29.71 in 3.7 mi Calm Calm - N/A   Partly Cloudy
5:30 AM 81 °F - 76 °F 82% 29.75 in 2 mi SW 2.3 mph - -   Clear
5:40 AM 82.4 °F 89.5 °F 75.2 °F 79% 29.74 in 3.7 mi SSW 4.6 mph - N/A   Partly Cloudy
6:10 AM 82.4 °F 90.9 °F 77.0 °F 84% 29.74 in 4.3 mi SW 4.6 mph - N/A   Partly Cloudy
6:40 AM 82.4 °F 90.9 °F 77.0 °F 84% 29.74 in 5.0 mi SSW 8.1 mph - N/A   Partly Cloudy
7:10 AM 82.4 °F 90.9 °F 77.0 °F 84% 29.74 in 5.0 mi SSW 6.9 mph - N/A   Partly Cloudy
7:40 AM 84.2 °F 94.1 °F 77.0 °F 79% 29.77 in 5.0 mi SSW 9.2 mph - N/A   Partly Cloudy
8:10 AM 86.0 °F 96.9 °F 77.0 °F 74% 29.77 in 5.0 mi SW 9.2 mph - N/A   Partly Cloudy
8:30 AM 87 °F - 78 °F 67% 29.80 in 6 mi SW 3.5 mph - -   Scattered Clouds
8:40 AM 87.8 °F 97.6 °F 75.2 °F 66% 29.77 in 5.0 mi SW 9.2 mph - N/A   Partly Cloudy
9:10 AM 87.8 °F 97.6 °F 75.2 °F 66% 29.77 in 5.0 mi WSW 8.1 mph - N/A   Partly Cloudy
9:40 AM 89.6 °F 102.2 °F 77.0 °F 66% 29.77 in 5.0 mi WSW 9.2 mph - N/A   Partly Cloudy
10:10 AM 89.6 °F 99.8 °F 75.2 °F 62% 29.77 in 5.0 mi West 9.2 mph - N/A   Partly Cloudy
10:40 AM 91.4 °F 100.1 °F 73.4 °F 55% 29.77 in 5.0 mi WNW 6.9 mph - N/A   Partly Cloudy
11:10 AM 91.4 °F 102.5 °F 75.2 °F 59% 29.74 in 5.0 mi West 9.2 mph - N/A   Partly Cloudy
11:30 AM 92 °F - 76 °F 50% 29.78 in 6 mi WNW 3.5 mph - -   Scattered Clouds
11:40 AM 91.4 °F 100.1 °F 73.4 °F 55% 29.74 in 5.0 mi WSW 8.1 mph - N/A   Partly Cloudy
12:10 PM 93.2 °F 102.4 °F 73.4 °F 52% 29.74 in 5.0 mi WNW 6.9 mph - N/A   Partly Cloudy
12:40 PM 93.2 °F 102.4 °F 73.4 °F 52% 29.71 in 5.0 mi WSW 9.2 mph - N/A   Partly Cloudy
1:10 PM 93.2 °F 100.5 °F 71.6 °F 49% 29.71 in 5.0 mi WNW 5.8 mph - N/A   Partly Cloudy
1:40 PM 95.0 °F 104.5 °F 73.4 °F 49% 29.68 in 5.0 mi NW 6.9 mph - N/A   Scattered Clouds
2:10 PM 95.0 °F 104.5 °F 73.4 °F 49% 29.68 in 5.0 mi WNW 6.9 mph - N/A   Scattered Clouds
2:30 PM 95 °F - 79 °F 52% 29.71 in 6 mi SE 2.3 mph - -   Partly Cloudy
2:40 PM 93.2 °F 105.0 °F 75.2 °F 56% 29.65 in 5.0 mi ESE 5.8 mph - N/A   Scattered Clouds
3:10 PM 91.4 °F 105.1 °F 77.0 °F 63% 29.65 in 4.3 mi ESE 10.4 mph - N/A   Scattered Clouds
3:40 PM 91.4 °F 105.1 °F 77.0 °F 63% 29.65 in 4.3 mi SE 9.2 mph - N/A   Scattered Clouds
4:10 PM 91.4 °F 102.5 °F 75.2 °F 59% 29.65 in 4.3 mi SE 8.1 mph - N/A   Scattered Clouds
4:40 PM 91.4 °F 105.1 °F 77.0 °F 63% 29.65 in 3.7 mi ESE 6.9 mph - N/A   Scattered Clouds
5:10 PM 89.6 °F 102.2 °F 77.0 °F 66% 29.65 in 3.7 mi ESE 6.9 mph - N/A   Partly Cloudy
5:30 PM 88 °F - 78 °F 65% 29.70 in 6 mi SE 4.6 mph - -   Scattered Clouds
5:40 PM 87.8 °F 99.7 °F 77.0 °F 70% 29.65 in 3.7 mi ESE 8.1 mph - N/A   Partly Cloudy
6:10 PM 87.8 °F 97.6 °F 75.2 °F 66% 29.68 in 2.5 mi ESE 6.9 mph - N/A   Haze
6:40 PM 86.0 °F 96.9 °F 77.0 °F 74% 29.68 in 2.5 mi East 9.2 mph - N/A   Haze
7:10 PM 86.0 °F 96.9 °F 77.0 °F 74% 29.68 in 2.5 mi East 6.9 mph - N/A   Haze
7:40 PM 86.0 °F 96.9 °F 77.0 °F 74% 29.71 in 2.5 mi SE 6.9 mph - N/A   Haze
8:10 PM 84.2 °F 94.1 °F 77.0 °F 79% 29.71 in 3.7 mi SE 6.9 mph - N/A   Partly Cloudy
8:30 PM 84 °F - 79 °F 81% 29.76 in 2 mi South 4.6 mph - -   Scattered Clouds
8:40 PM 84.2 °F 94.1 °F 77.0 °F 79% 29.74 in 3.7 mi SE 9.2 mph - N/A   Partly Cloudy
9:10 PM 84.2 °F 96.1 °F 78.8 °F 84% 29.74 in 3.7 mi SSE 9.2 mph - N/A   Partly Cloudy
9:40 PM 84.2 °F 96.1 °F 78.8 °F 84% 29.77 in 3.7 mi South 9.2 mph - N/A   Scattered Clouds
10:10 PM 84.2 °F 96.1 °F 78.8 °F 84% 29.77 in 3.7 mi SSE 5.8 mph - N/A   Scattered Clouds
10:40 PM 84.2 °F 96.1 °F 78.8 °F 84% 29.77 in 3.7 mi South 6.9 mph - N/A   Scattered Clouds
11:10 PM 84.2 °F 94.1 °F 77.0 °F 79% 29.77 in 3.7 mi South 5.8 mph - N/A   Scattered Clouds
11:30 PM 84 °F - 80 °F 84% 29.81 in 2 mi South 2.3 mph - -   Partly Cloudy
11:40 PM 84.2 °F 94.1 °F 77.0 °F 79% 29.77 in 3.7 mi South 5.8 mph - N/A   Scattered Clouds